User: anonymous   Login
Location: Unspecified
(0.0000°N, 0.0000°E)
Time: 23:20:32
(UTC+01:00)
Language:

Sapphire - Orbit

View from above orbital plane
View from above orbital plane
View from above satellite
View from above satellite

Ground track
Ground track

The orbit data is extracted from the following two-line orbital elements,

1 26932U 01043D   17326.60444623 -.00000026 +00000-0 +21844-4 0  9990
2 26932 067.0576 045.0113 0005712 245.7134 114.3371 14.30265549842957
Epoch (UTC): 22 November 2017 14:30:24
Eccentricity: 0.0005712
inclination: 67.0576°
perigee height: 787 km
apogee height: 795 km
right ascension of ascending node: 45.0113°
argument of perigee: 245.7134°
revolutions per day: 14.30265549
mean anomaly at epoch: 114.3371°
orbit number at epoch: 84295

The dashed part of the orbit path shows where the satellite is in the earth's shadow,  

DLR